Flag for U.S.A. Weather past 2 weeks in Dallas, Texas, U.S.A.

Now
61 °F

Passing clouds.


Feels Like: 61 °F
Forecast: 51 / 66 °F
Wind: 7 mph from South

Location: Dallas Love Field

Current Time: Jan 29, 2015 at 3:29:00 AM

Latest Report: Jan 29, 2015 at 2:53 AM


Visibility: 10 mi

Pressure: 30.05 "Hg

Humidity: 48%

Dew point: 41 °F

Location of DallasLocation

Historic Weather in Dallas — Graph

°F

Dallas temperature yesterday

Maximum temperature yesterday: 80 °F (at 1:53 PM)
Minimum temperature yesterday: 48 °F (at 5:53 AM)
Average temperature yesterday: 65 °F

Past Weeks' High & Low Weather Summary

 TemperatureHumidityPressure
High80 °F (Jan 28, 1:53 PM)93% (Jan 22, 12:53 AM)30.41 "Hg (Jan 22, 12:53 AM)
Low34 °F (Jan 16, 4:53 AM)19% (Jan 18, 2:53 PM)29.91 "Hg (Jan 20, 4:53 AM)
Average51 °F56%30.14 "Hg
* Reported Jan 14 1:53 AM — Jan 29 1:53 AM, Dallas, Weather by CustomWeather, © 2014

Note: Actual official high and low records may vary slightly from our data, if they occured in-between our weather recording intervals... More about our weather records

Advertising

Dallas weather history for previous 24 hours

 ConditionsComfort  
Time TempWeatherWind HumidityBarometerVisibility
1:53 AM
Jan 29
64 °FPassing clouds.8 mph43%30.06 "Hg10 mi
12:53 AM65 °FPassing clouds.12 mph42%30.02 "Hg10 mi
11:53 PM
Jan 28
67 °FPassing clouds.14 mph37%30.02 "Hg10 mi
10:53 PM70 °FClear.10 mph32%30.01 "Hg10 mi
9:53 PM72 °FClear.14 mph29%29.99 "Hg10 mi
8:53 PM72 °FClear.14 mph31%29.98 "Hg10 mi
7:53 PM71 °FClear.14 mph34%29.99 "Hg10 mi
6:53 PM73 °FPassing clouds.13 mph34%29.98 "Hg10 mi
5:53 PM74 °FPartly sunny.14 mph33%29.97 "Hg10 mi
4:53 PM78 °FBroken clouds.13 mph28%29.97 "Hg10 mi
3:53 PM79 °FPartly sunny.12 mph25%29.97 "Hg10 mi
2:53 PM80 °FPartly sunny.15 mph24%29.98 "Hg10 mi
1:53 PM80 °FPartly sunny.14 mph24%29.99 "Hg10 mi
12:53 PM79 °FScattered clouds.14 mph28%30.03 "Hg10 mi
11:53 AM75 °FScattered clouds.10 mph31%30.08 "Hg10 mi
10:53 AM69 °FScattered clouds.6 mph41%30.11 "Hg10 mi
9:53 AM64 °FScattered clouds.9 mph47%30.11 "Hg10 mi
8:53 AM58 °FPassing clouds.9 mph58%30.11 "Hg10 mi
7:53 AM49 °FPassing clouds.7 mph77%30.10 "Hg10 mi
6:53 AM50 °FPassing clouds.7 mph71%30.09 "Hg10 mi
5:53 AM48 °FClear.9 mph74%30.07 "Hg10 mi
4:53 AM49 °FClear.3 mph71%30.07 "Hg10 mi
3:53 AM49 °FClear.No wind71%30.07 "Hg10 mi
Weather by CustomWeather, © 2014

See weather overviewHow to use our weather pages